Location: Kermapucano
(48.0667°N, 3.3000°W)
Time: 20:40:38
(UTC+00:00)

Cosmos 1743 Rocket - Pass Details

Date: 29 November 2020
Orbit: 603 x 633 km, 82.6° (Epoch: 27 January)

Event Time Altitude Azimuth Distance (km) Brightness Sun altitude
Rises 06:31:47 0° 211° (SSW) 2,902 6.9 -11.1°
Reaches altitude 10° 06:34:09 10° 221° (SW) 2,004 6.0 -10.7°
Maximum altitude 06:38:13 34° 287° (WNW) 1,040 4.2 -10.1°
Drops below altitude 10° 06:42:21 10° 353° (N) 2,029 5.9 -9.4°
Sets 06:44:46 0° 3° (N) 2,943 6.8 -9.0°
